FENGYUN 1C DEB, 32221

Orbit data source: Space-Track

FENGYUN 1C DEB, 32221 is space debris in SSO originally from a launch on Mon, 10 May 1999 UTC launched from the Taiyaun Space Center, China (TSC). Fengyun 1C debris stems from the Chinese weather satellite Fengyun-1C, which was intentionally destroyed by a Chinese anti-satellite missile in 2007. This event dramatically increased the amount of space debris, with thousands of trackable fragments posing hazards to satellites and human spaceflight. The Fengyun 1C debris cloud has become a focal point in discussions about space sustainability and the need for international regulations to prevent the creation of new debris.

Loading next visibility...
Identifier
32221, 1999-025CVT
Orbit
SSO
Country
Flag of CNCN / PRC
Related business
Manufacturer
Unknown
Mission
Spacecraft
Bus & Motor
Unknown
Mass
Unknown
Launch date (UTC)
1999-05-10 (27 years ago)
Launch vehicle
Unknown
Launch site
Taiyaun Space Center, China (TSC)
Object type
Payload
Rocket body
Debris
Shape & HBR
Unknown shape, 0.1 m
Radar Cross Section
Small (<0.1 m²)

Expand to show TLE details & history
Last TLE update: 3 days ago

TLE from 3 days ago
0 FENGYUN 1C DEB
1 32221U 99025CVT 25351.38223323  .00001514  00000-0  28975-3 0  9992
2 32221  98.5656 141.4486 0146933 131.5028 229.8889 14.58717139972656
Epoch: 2025-12-17T09:10Z
TLE epoch observation values (Epoch: 2025-12-17T09:10:24.951Z)
Latitude
-0.00002°
Longitude
-82.40825°
Altitude
768.167 km
Speed
7.434 km/s
True Right ascension
09h 25m 47s
True Declination
0° 00' 00"
Sunlit
Object was in full shadow at epoch
Visualization orbit readout
Latitude
Unknown
Longitude
Unknown
Altitude
Unknown
Speed
Unknown
Apparent Right ascension
Unknown
Apparent Declination
Unknown
Sunlit
N/A
Visualization observer readout
Local Sidereal Time
23:27:17
Azimuth
Unknown
Elevation
Unknown
Doppler factor
Unknown
Orbital elements
Apogee altitude
798.338 km
Perigee altitude
590.499 km
Semi-major axis
7,072.555 km
Eccentricity
0.01469
Inclination
98.5656°
RAAN
141.4486°
Arg. of periapsis
131.5028°
True anomaly
228.61636°
Mean anomaly
229.8889°
Eccentric anomaly
229.25112°
Mean motion
3.64904 °/min
Orbital period
98.66 mins
BSTAR
0.00028975
Loading maneuver chart data...
Computing Atmospheric mass density...
Loading historical data...
Loading historical data...
Loading historical data...
Loading historical data...
Loading historical data...
Loading historical data...
Loading historical data...

Documentation

Showing up to 5 results
|